Cloud_Cover
0 60 98 85 32 0 0 0 0 0 0 0 0 0 0 0 0 26 0 0 0 0 0 0 0 17 32 86 95 24 5 82 100 100 100 100 100 100 13 100 82 68 46 87 84 100 92 99 100
45 59 93 89 5 0 0 0 0 0 0 0 0 0 0 0 0 0 0 0 0 0 0 0 8 22 5 5 5 9 89 40 100 100 100 100 100 100 100 100 95 92 96 86 63 92 98 100 98
8 64 68 0 5 0 0 0 0 0 0 0 0 0 0 0 0 0 0 0 0 0 0 0 0 0 0 0 2 5 5 29 100 100 100 100 100 100 100 100 96 95 100 66 23 58 100 100 100
30 79 8 12 4 0 0 0 0 0 0 0 0 0 0 0 0 0 0 0 0 1 8 2 0 13 0 5 4 1 44 52 100 100 100 100 100 100 100 100 100 100 100 71 86 100 100 100 100
5 0 4 30 0 0 0 0 0 0 0 0 0 0 0 0 0 0 5 5 9 5 5 50 62 50 0 11 1 5 5 12 8 5 53 88 89 100 100 100 100 100 100 98 68 17 99 73 100
0 1 38 4 2 0 0 0 0 0 0 0 0 0 0 0 0 0 4 33 5 4 7 72 93 75 20 12 0 5 5 85 97 100 25 37 100 100 100 100 100 100 100 100 40 58 5 89 36
0 0 5 2 0 0 0 0 4 0 0 0 0 0 0 0 0 0 0 13 5 5 14 6 22 100 86 69 55 0 26 59 100 94 100 100 100 100 92 78 100 100 100 79 5 66 5 10 53
4 0 4 2 0 0 0 0 0 1 2 0 0 0 0 0 0 0 0 0 5 5 9 48 30 100 100 100 83 0 0 0 0 3 99 25 100 100 5 11 15 14 8 5 5 9 8 65 100
2 0 6 2 0 0 0 0 0 0 5 2 0 0 0 0 0 0 0 0 0 3 4 9 67 65 96 99 100 0 7 0 0 1 1 1 78 18 9 5 5 7 8 0 1 11 5 98 100
2 1 60 4 0 0 0 0 0 1 5 0 5 77 0 0 0 0 0 0 0 0 0 4 5 80 96 99 100 54 47 7 8 11 20 49 99 86 99 10 3 2 1 4 84 8 5 95 100
0 0 20 5 5 0 0 0 0 1 3 5 3 5 50 0 0 0 0 0 0 0 0 0 2 31 94 68 99 84 21 62 20 5 27 74 42 20 0 35 2 10 8 35 23 24 85 98 18
0 0 0 1 0 0 0 0 0 0 5 19 5 68 73 0 0 0 0 0 0 0 0 0 0 5 84 96 56 96 5 20 5 33 9 25 19 25 20 52 39 61 98 95 5 57 43 5 8
0 0 0 2 5 0 0 0 0 0 0 12 77 17 40 3 5 0 0 0 0 0 0 0 2 0 48 72 28 100 72 21 33 41 18 15 5 5 5 38 34 56 100 100 58 9 9 98 100
0 0 0 0 2 5 2 0 0 0 0 0 44 80 48 88 1 5 0 0 0 0 0 0 0 2 1 11 90 94 100 38 85 5 54 46 5 6 34 50 12 11 66 79 21 55 19 64 100
0 0 0 0 2 5 1 0 0 0 0 0 6 57 71 38 4 4 5 2 0 0 0 0 0 0 0 0 6 75 76 92 100 95 57 26 34 72 98 29 12 42 52 99 100 37 32 34 91
0 0 0 0 0 3 1 0 0 2 0 0 1 51 5 6 5 0 4 2 1 1 0 0 0 0 0 0 0 0 0 36 68 79 95 100 43 5 5 15 25 20 39 66 100 100 84 46 49
0 0 0 0 0 0 0 0 2 0 0 0 0 0 9 5 3 5 0 4 5 5 23 1 0 0 0 0 0 0 0 0 4 19 94 100 88 12 5 17 46 3 22 59 37 100 100 80 82
0 0 0 0 0 0 0 0 0 0 0 0 2 0 5 5 5 8 16 2 5 5 20 36 4 0 0 0 1 0 0 0 0 2 18 90 100 95 56 94 28 16 4 24 52 86 72 80 62
0 0 0 0 0 0 0 0 0 0 0 0 0 0 1 5 40 0 0 0 1 5 5 5 6 12 0 0 0 0 0 0 0 13 15 28 41 100 100 100 5 13 7 13 19 33 8 20 19
0 0 0 0 0 0 0 0 0 0 0 0 0 0 0 5 98 29 0 0 0 3 4 5 5 9 5 0 0 0 0 13 93 67 45 9 12 11 100 98 26 8 5 27 18 34 12 8 88
0 0 0 0 1 2 0 0 0 0 0 0 0 0 0 5 86 86 3 0 0 0 0 5 5 21 5 5 1 0 2 68 100 58 37 75 31 36 44 100 72 24 29 23 50 42 34 5 23
0 0 0 0 0 4 6 3 0 0 0 0 0 0 0 2 5 100 7 0 0 0 1 5 98 92 5 0 0 0 0 1 8 16 32 71 40 35 46 65 99 80 99 43 100 79 18 28 8
0 0 0 72 61 80 26 67 1 0 0 0 0 0 0 4 5 74 67 3 1 2 6 19 100 98 5 0 0 0 4 1 6 3 92 72 26 31 6 91 84 100 28 64 100 62 97 100 72
0 0 58 100 100 100 100 100 100 9 0 0 0 5 17 27 2 0 5 55 5 3 51 5 100 97 2 2 0 0 0 8 27 0 17 100 88 100 88 54 46 37 62 64 71 98 82 97 74
0 2 97 100 100 100 100 100 100 96 1 0 0 2 79 41 60 6 2 32 5 3 25 22 5 5 5 4 0 0 0 2 98 19 32 100 96 100 89 99 99 100 100 99 100 100 82 47 34
90 75 100 100 100 100 100 14 5 28 2 0 0 0 0 5 23 6 2 6 5 5 2 5 3 82 5 0 0 0 0 0 15 3 16 2 68 15 32 100 88 100 91 100 100 100 93 99 98
97 1 100 10 98 25 100 100 100 0 0 0 0 0 0 0 0 0 4 5 1 5 5 9 64 43 3 0 0 0 0 0 0 0 14 0 0 0 1 5 9 97 100 98 100 100 100 100 70
10 99 77 75 85 84 7 50 99 89 3 0 0 0 0 0 0 0 0 4 0 1 5 5 90 5 4 0 0 0 0 0 0 12 5 5 1 0 5 32 54 99 71 79 73 100 80 99 100
82 54 62 99 88 100 100 94 100 100 41 0 0 0 0 0 0 0 0 0 0 0 3 9 15 56 2 20 41 5 4 5 2 47 1 25 31 5 71 35 43 70 100 74 81 58 100 92 100
64 6 60 100 99 73 8 80 100 99 100 0 5 0 24 1 34 11 0 0 0 0 0 9 27 17 86 96 5 5 6 5 5 5 98 5 6 85 70 43 42 43 64 96 68 43 100 100 100